Powrót do katalogu

CRRES DEB

CANISTER

AktywnyGTO
NORAD 21777·DEBRIS·🇺🇸 United States

Wystrzelony Jul 25, 1990 z Cape Canaveral Space Force Station

Loading…

TLE

NieaktualneSource: Space-Track

Epoka: Sep 13, 2026, 04:58 UTC

1 21777U 90065Q   26256.20700975 -.00000099  00000-0  28903-2 0  9998
2 21777  18.3227 204.5812 6940347 154.3002 356.3356  2.39839193284843

Śledź CRRES DEB w czasie rzeczywistym z AllMySat

Download on the App Store